Air Resources Laboratory banner image
Air Resources Laboratory web site National Oceanic and Atmospheric Administration (NOAA)

oh roundup


Office: CLE

ASUS41 KCLE 161600
RWRCLE
OHIO REGIONAL WEATHER ROUNDUP
NATIONAL WEATHER SERVICE WILMINGTON, OH
1200 PM EDT MON JUL 16 2018

NOTE: "FAIR" INDICATES FEW OR NO CLOUDS BELOW 12,000 FEET WITH NO
SIGNIFICANT WEATHER AND/OR OBSTRUCTIONS TO VISIBILITY.

OHZ001>008-015>018-024>027-034-035-043-044-161700-
   NORTHWEST OHIO

CITY           SKY/WX    TMP DP  RH WIND       PRES   REMARKS
DEFIANCE       PTSUNNY   82  73  74 SW6       29.96S
FINDLAY        PTSUNNY   83  73  72 SW7       29.96F
TOLEDO EXPRESS FAIR      87  71  58 S9        29.94S HX  93
TOLEDO EXEC    FAIR      86  72  62 SW10      29.95F HX  92
LIMA           FAIR      83  72  69 W8        29.98S
$$

OHZ009>014-019>023-028>033-038-089-161700-
   NORTHEAST OHIO

CITY           SKY/WX    TMP DP  RH WIND       PRES   REMARKS
CLE-HOPKINS    PTSUNNY   86  71  60 SW8       29.99S HX  91
CLE-LAKEFRONT  FAIR      83  73  72 NW6       29.96S
CUY CO. ARPT   NOT AVBL
LORAIN-ELYRIA  FAIR      83  67  58 VRB5      29.98S
ASHTABULA      FAIR      86  72  62 SW7       29.99S HX  92
AKRON-CANTON   PTSUNNY   87  70  56 SW12      30.01S HX  92
WOOSTER        NOT AVBL
MANSFIELD      PTSUNNY   79  68  69 S15G21    30.01S
YOUNGSTOWN     PTSUNNY   86  72  62 W9        30.00S HX  92
$$

OHZ042-051>053-060>062-070>072-077>081-161700-
  SOUTHWEST OHIO

CITY           SKY/WX    TMP DP  RH WIND       PRES   REMARKS
CINC-COVINGTON PTSUNNY   80  71  74 SW7       30.00S
CINC-LUNKEN    PTSUNNY   83  73  72 SW8       29.99S
HAMILTON       PTSUNNY   84  72  67 VRB6      30.00S
DAYTON         NOT AVBL
WRIGHT-PAT AFB FAIR      85  71  62 SW6       29.98F
DAYTON GENERAL PTSUNNY   84  70  62 VRB6      29.99S
WILMINGTON     FAIR      82  73  74 S9        30.00S
$$

OHZ036-037-039>041-045>050-054>059-063>069-073>076-082>088-161700-
  CENTRAL AND SOUTHEAST OHIO

CITY           SKY/WX    TMP DP  RH WIND       PRES   REMARKS
COLUMBUS       PTSUNNY   84  71  65 VRB7      29.99F
OSU AIRPORT    FAIR      83  71  67 SW6       29.99F
BOLTON FIELD   PTSUNNY   82  73  74 SW8G18    30.00F
RICKENBACK AFB NOT AVBL
NEWARK         PTSUNNY   82  72  71 S7        30.00S
MARION         FAIR      84  71  65 SW10      29.99F
LANCASTER      CLOUDY    83  73  72 SE9       30.00F
ZANESVILLE     FAIR      83  72  69 S8        30.01S
NEW PHILLY     FAIR      85  72  65 VRB5      30.00S HX  91
$$


ASUS41 KCLE 161602
RWRCLE
OHIO REGIONAL WEATHER ROUNDUP
NATIONAL WEATHER SERVICE CLEVELAND, OH
1200 PM EDT MON JUL 16 2018

NOTE: "FAIR" INDICATES FEW OR NO CLOUDS BELOW 12,000 FEET WITH NO
SIGNIFICANT WEATHER AND/OR OBSTRUCTIONS TO VISIBILITY.

OHZ001>008-015>018-024>027-034-035-043-044-161700-
   NORTHWEST OHIO

CITY           SKY/WX    TMP DP  RH WIND       PRES   REMARKS
DEFIANCE       PTSUNNY   82  73  74 SW6       29.96S
FINDLAY        PTSUNNY   83  73  72 SW7       29.96F
TOLEDO EXPRESS FAIR      87  71  58 S9        29.94S HX  93
TOLEDO EXEC    FAIR      86  72  62 SW10      29.95F HX  92
LIMA           FAIR      83  72  69 W8        29.98S
$$

OHZ009>014-019>023-028>033-038-089-161700-
   NORTHEAST OHIO

CITY           SKY/WX    TMP DP  RH WIND       PRES   REMARKS
CLE-HOPKINS    PTSUNNY   86  71  60 SW8       29.99S HX  91
CLE-LAKEFRONT  FAIR      83  73  72 NW6       29.96S
CUY CO. ARPT   PTSUNNY   88  73  62 NW12      29.98S HX  96
LORAIN-ELYRIA  FAIR      83  67  58 VRB5      29.98S
ASHTABULA      FAIR      86  72  62 SW7       29.99S HX  92
AKRON-CANTON   PTSUNNY   87  70  56 SW12      30.01S HX  92
WOOSTER        FAIR      83  73  72 SW8       30.01S
MANSFIELD      PTSUNNY   79  68  69 S15G21    30.01S
YOUNGSTOWN     PTSUNNY   86  72  62 W9        30.00S HX  92
$$

OHZ042-051>053-060>062-070>072-077>081-161700-
  SOUTHWEST OHIO

CITY           SKY/WX    TMP DP  RH WIND       PRES   REMARKS
CINC-COVINGTON PTSUNNY   80  71  74 SW7       30.00S
CINC-LUNKEN    PTSUNNY   83  73  72 SW8       29.99S
HAMILTON       PTSUNNY   84  72  67 VRB6      30.00S
DAYTON         PTSUNNY   83  71  67 SW7       30.00S
WRIGHT-PAT AFB FAIR      85  71  62 SW6       29.98F
DAYTON GENERAL PTSUNNY   84  70  62 VRB6      29.99S
WILMINGTON     FAIR      82  73  74 S9        30.00S
$$

OHZ036-037-039>041-045>050-054>059-063>069-073>076-082>088-161700-
  CENTRAL AND SOUTHEAST OHIO

CITY           SKY/WX    TMP DP  RH WIND       PRES   REMARKS
COLUMBUS       PTSUNNY   84  71  65 VRB7      29.99F
OSU AIRPORT    FAIR      83  71  67 SW6       29.99F
BOLTON FIELD   PTSUNNY   82  73  74 SW8G18    30.00F
RICKENBACK AFB PTSUNNY   83  73  71 SE7       29.99S
NEWARK         PTSUNNY   82  72  71 S7        30.00S
MARION         FAIR      84  71  65 SW10      29.99F
LANCASTER      CLOUDY    83  73  72 SE9       30.00F
ZANESVILLE     FAIR      83  72  69 S8        30.01S
NEW PHILLY     NOT AVBL
$$


ASUS41 KCLE 161610
RWRCLE
OHIO REGIONAL WEATHER ROUNDUP
NATIONAL WEATHER SERVICE CLEVELAND, OH
1200 PM EDT MON JUL 16 2018

NOTE: "FAIR" INDICATES FEW OR NO CLOUDS BELOW 12,000 FEET WITH NO
SIGNIFICANT WEATHER AND/OR OBSTRUCTIONS TO VISIBILITY.

OHZ001>008-015>018-024>027-034-035-043-044-161700-
   NORTHWEST OHIO

CITY           SKY/WX    TMP DP  RH WIND       PRES   REMARKS
DEFIANCE       PTSUNNY   82  73  74 SW6       29.96S
FINDLAY        PTSUNNY   83  73  72 SW7       29.96F
TOLEDO EXPRESS FAIR      87  71  58 S9        29.94S HX  93
TOLEDO EXEC    FAIR      86  72  62 SW10      29.95F HX  92
LIMA           FAIR      83  72  69 W8        29.98S
$$

OHZ009>014-019>023-028>033-038-089-161700-
   NORTHEAST OHIO

CITY           SKY/WX    TMP DP  RH WIND       PRES   REMARKS
CLE-HOPKINS    PTSUNNY   86  71  60 SW8       29.99S HX  91
CLE-LAKEFRONT  FAIR      83  73  72 NW6       29.96S
CUY CO. ARPT   PTSUNNY   88  73  62 NW12      29.98S HX  96
LORAIN-ELYRIA  FAIR      83  67  58 VRB5      29.98S
ASHTABULA      FAIR      86  72  62 SW7       29.99S HX  92
AKRON-CANTON   PTSUNNY   87  70  56 SW12      30.01S HX  92
WOOSTER        FAIR      83  73  72 SW8       30.01S
MANSFIELD      PTSUNNY   78  69  73 S9        30.00F
YOUNGSTOWN     PTSUNNY   86  72  62 W9        30.00S HX  92
$$

OHZ042-051>053-060>062-070>072-077>081-161700-
  SOUTHWEST OHIO

CITY           SKY/WX    TMP DP  RH WIND       PRES   REMARKS
CINC-COVINGTON PTSUNNY   80  71  74 SW7       30.00S
CINC-LUNKEN    PTSUNNY   82  73  74 S10       29.99S
HAMILTON       CLOUDY    83  72  69 W6        29.99F
DAYTON         PTSUNNY   83  71  67 SW7       30.00S
WRIGHT-PAT AFB FAIR      85  71  62 SW6       29.98F
DAYTON GENERAL PTSUNNY   84  70  62 VRB6      29.99S
WILMINGTON     FAIR      82  73  74 S9        30.00S
$$

OHZ036-037-039>041-045>050-054>059-063>069-073>076-082>088-161700-
  CENTRAL AND SOUTHEAST OHIO

CITY           SKY/WX    TMP DP  RH WIND       PRES   REMARKS
COLUMBUS       PTSUNNY   84  71  65 VRB7      29.99F
OSU AIRPORT    FAIR      83  71  67 SW6       29.99F
BOLTON FIELD   PTSUNNY   82  73  74 SW8G18    30.00F
RICKENBACK AFB PTSUNNY   83  73  71 SE7       29.99S
NEWARK         PTSUNNY   82  72  71 S7        30.00S
MARION         FAIR      84  71  65 SW10      29.99F
LANCASTER      CLOUDY    83  73  72 SE9       30.00F
ZANESVILLE     FAIR      83  72  69 S8        30.01S
NEW PHILLY     NOT AVBL
$$


ASUS41 KCLE 161610
RWRCLE
OHIO REGIONAL WEATHER ROUNDUP
NATIONAL WEATHER SERVICE WILMINGTON, OH
1200 PM EDT MON JUL 16 2018

NOTE: "FAIR" INDICATES FEW OR NO CLOUDS BELOW 12,000 FEET WITH NO
SIGNIFICANT WEATHER AND/OR OBSTRUCTIONS TO VISIBILITY.

OHZ001>008-015>018-024>027-034-035-043-044-161700-
   NORTHWEST OHIO

CITY           SKY/WX    TMP DP  RH WIND       PRES   REMARKS
DEFIANCE       PTSUNNY   82  73  74 SW6       29.96S
FINDLAY        PTSUNNY   83  73  72 SW7       29.96F
TOLEDO EXPRESS FAIR      87  71  58 S9        29.94S HX  93
TOLEDO EXEC    FAIR      86  72  62 SW10      29.95F HX  92
LIMA           FAIR      83  72  69 W8        29.98S
$$

OHZ009>014-019>023-028>033-038-089-161700-
   NORTHEAST OHIO

CITY           SKY/WX    TMP DP  RH WIND       PRES   REMARKS
CLE-HOPKINS    PTSUNNY   86  71  60 SW8       29.99S HX  91
CLE-LAKEFRONT  FAIR      83  73  72 NW6       29.96S
CUY CO. ARPT   PTSUNNY   88  73  62 NW12      29.98S HX  96
LORAIN-ELYRIA  FAIR      83  67  58 VRB5      29.98S
ASHTABULA      FAIR      86  72  62 SW7       29.99S HX  92
AKRON-CANTON   PTSUNNY   87  70  56 SW12      30.01S HX  92
WOOSTER        FAIR      83  73  72 SW8       30.01S
MANSFIELD      PTSUNNY   78  69  73 S9        30.00F
YOUNGSTOWN     PTSUNNY   86  72  62 W9        30.00S HX  92
$$

OHZ042-051>053-060>062-070>072-077>081-161700-
  SOUTHWEST OHIO

CITY           SKY/WX    TMP DP  RH WIND       PRES   REMARKS
CINC-COVINGTON PTSUNNY   80  71  74 SW7       30.00S
CINC-LUNKEN    PTSUNNY   82  73  74 S10       29.99S
HAMILTON       CLOUDY    83  72  69 W6        29.99F
DAYTON         PTSUNNY   83  71  67 SW7       30.00S
WRIGHT-PAT AFB FAIR      85  71  62 SW6       29.98F
DAYTON GENERAL PTSUNNY   84  70  62 VRB6      29.99S
WILMINGTON     FAIR      82  73  74 S9        30.00S
$$

OHZ036-037-039>041-045>050-054>059-063>069-073>076-082>088-161700-
  CENTRAL AND SOUTHEAST OHIO

CITY           SKY/WX    TMP DP  RH WIND       PRES   REMARKS
COLUMBUS       PTSUNNY   84  71  65 VRB7      29.99F
OSU AIRPORT    FAIR      83  71  67 SW6       29.99F
BOLTON FIELD   PTSUNNY   82  73  74 SW8G18    30.00F
RICKENBACK AFB PTSUNNY   83  73  71 SE7       29.99S
NEWARK         PTSUNNY   82  72  71 S7        30.00S
MARION         FAIR      84  71  65 SW10      29.99F
LANCASTER      CLOUDY    83  73  72 SE9       30.00F
ZANESVILLE     FAIR      83  72  69 S8        30.01S
NEW PHILLY     FAIR      85  72  65 VRB5      30.00S HX  91
$$


ASUS41 KCLE 161612
RWRCLE
OHIO REGIONAL WEATHER ROUNDUP
NATIONAL WEATHER SERVICE WILMINGTON, OH
1200 PM EDT MON JUL 16 2018

NOTE: "FAIR" INDICATES FEW OR NO CLOUDS BELOW 12,000 FEET WITH NO
SIGNIFICANT WEATHER AND/OR OBSTRUCTIONS TO VISIBILITY.

OHZ001>008-015>018-024>027-034-035-043-044-161700-
   NORTHWEST OHIO

CITY           SKY/WX    TMP DP  RH WIND       PRES   REMARKS
DEFIANCE       PTSUNNY   82  73  74 SW6       29.96S
FINDLAY        PTSUNNY   83  73  72 SW7       29.96F
TOLEDO EXPRESS FAIR      87  71  58 S9        29.94S HX  93
TOLEDO EXEC    FAIR      86  72  62 SW10      29.95F HX  92
LIMA           FAIR      83  72  69 W8        29.98S
$$

OHZ009>014-019>023-028>033-038-089-161700-
   NORTHEAST OHIO

CITY           SKY/WX    TMP DP  RH WIND       PRES   REMARKS
CLE-HOPKINS    PTSUNNY   86  71  60 SW8       29.99S HX  91
CLE-LAKEFRONT  FAIR      83  73  72 NW6       29.96S
CUY CO. ARPT   PTSUNNY   88  73  62 NW12      29.98S HX  96
LORAIN-ELYRIA  FAIR      83  67  58 VRB5      29.98S
ASHTABULA      FAIR      86  72  62 SW7       29.99S HX  92
AKRON-CANTON   PTSUNNY   87  70  56 SW12      30.01S HX  92
WOOSTER        FAIR      83  73  72 SW8       30.01S
MANSFIELD      PTSUNNY   78  69  73 S9        30.00F
YOUNGSTOWN     PTSUNNY   86  72  62 W9        30.00S HX  92
$$

OHZ042-051>053-060>062-070>072-077>081-161700-
  SOUTHWEST OHIO

CITY           SKY/WX    TMP DP  RH WIND       PRES   REMARKS
CINC-COVINGTON PTSUNNY   80  71  74 SW7       30.00S
CINC-LUNKEN    PTSUNNY   82  73  74 S10       29.99S
HAMILTON       CLOUDY    83  72  69 W6        29.99F
DAYTON         PTSUNNY   83  71  67 SW7       30.00S
WRIGHT-PAT AFB FAIR      85  71  62 SW6       29.98F
DAYTON GENERAL PTSUNNY   84  70  62 VRB6      29.99S
WILMINGTON     FAIR      82  73  74 S9        30.00S
$$

OHZ036-037-039>041-045>050-054>059-063>069-073>076-082>088-161700-
  CENTRAL AND SOUTHEAST OHIO

CITY           SKY/WX    TMP DP  RH WIND       PRES   REMARKS
COLUMBUS       PTSUNNY   84  71  65 VRB7      29.99F
OSU AIRPORT    FAIR      83  71  67 SW6       29.99F
BOLTON FIELD   PTSUNNY   82  73  74 SW8G18    30.00F
RICKENBACK AFB PTSUNNY   83  73  71 SE7       29.99S
NEWARK         PTSUNNY   82  72  71 S7        30.00S
MARION         FAIR      84  71  65 SW10      29.99F
LANCASTER      CLOUDY    83  73  72 SE9       30.00F
ZANESVILLE     FAIR      83  72  69 S8        30.01S
NEW PHILLY     FAIR      85  72  65 VRB5      30.00S HX  91
$$